CW2091 Weather Reports


Display with metric or nautical units.
time (UTC)temp
F
wind
direction
speed
MPH
gust
MPH
rain 1hr
in
rain 24hr
in
rain mn
in
humidity
%
barometer
mb
20260506010112 56 0 0.0 0.0 0.00 0.40 0.00 93 1004.9
20260506003112 56 0 0.0 0.0 0.00 0.40 0.00 93 1005.2
20260506000112 56 0 0.0 0.0 0.00 0.40 0.00 93 1005.2
20260505233113 57 0 0.0 0.0 0.00 0.40 0.00 92 1005.4
20260505230112 57 0 0.0 0.0 0.00 0.40 0.00 92 1005.4
20260505223112 58 0 0.0 0.0 0.00 0.40 0.00 92 1005.4
20260505213112 58 0 0.0 0.0 0.09 0.40 0.40 91 1005.5
20260505210111 59 0 0.0 0.0 0.14 0.39 0.39 91 1005.6
20260505203111 60 0 0.0 0.0 0.13 0.31 0.31 90 1005.5
20260505173111 62 0 0.0 0.0 0.00 0.18 0.18 89 1005.0
20260505170111 62 0 0.0 0.0 0.00 0.18 0.18 89 1005.0
20260505163111 61 0 0.0 0.0 0.00 0.18 0.18 89 1005.1
20260505160110 61 0 0.0 0.0 0.00 0.18 0.18 89 1005.3
20260505153110 61 0 0.0 0.0 0.01 0.18 0.18 89 1005.4
20260505150110 62 0 0.0 0.0 0.02 0.18 0.18 87 1005.6
20260505140110 64 202 1.0 6.0 0.16 0.16 0.16 80 1006.1
20260505130110 67 270 0.0 3.0 0.00 0.00 0.00 66 1005.7
20260505123110 68 315 0.0 2.0 0.00 0.00 0.00 66 1005.7
20260505120109 68 0 0.0 0.0 0.00 0.00 0.00 65 1005.7
20260505113109 68 0 0.0 0.0 0.00 0.00 0.00 62 1005.9
20260505110109 68 0 0.0 0.0 0.00 0.00 0.00 65 1005.9
20260505100109 67 0 0.0 0.0 0.00 0.00 0.00 66 1006.6
20260505093110 67 247 0.0 4.0 0.00 0.00 0.00 68 1006.7
20260505090109 66 0 0.0 0.0 0.00 0.00 0.00 70 1006.8
20260505083109 65 0 0.0 0.0 0.00 0.00 0.00 71 1007.0
20260505080109 65 0 0.0 0.0 0.00 0.00 0.00 74 1007.1
20260505073113 62 0 0.0 0.0 0.00 0.00 0.00 79 1007.3
20260505070113 61 0 0.0 0.0 0.00 0.00 0.00 82 1007.5
20260505063113 60 0 0.0 0.0 0.00 0.00 0.00 84 1007.6
20260505060113 59 0 0.0 0.0 0.00 0.00 0.00 85 1007.8
20260505053113 57 0 0.0 0.0 0.00 0.00 0.00 85 1007.8
20260505040113 57 0 0.0 0.0 0.00 0.00 0.00 80 1007.5
20260505030112 59 0 0.0 0.0 0.00 0.00 0.00 79 1008.0
20260505023112 60 0 0.0 0.0 0.00 0.00 0.00 78 1008.3
20260505020113 60 0 0.0 0.0 0.00 0.00 0.00 78 1008.8